Location: Chervonnoye
(48.6000°N, 34.4000°E)
Time: 15:52:19
(UTC+00:00)

SAR-Lupe-4 - Pass Details

Date: 23 November 2020
Orbit: 481 x 484 km, 98.2° (Epoch: 09 January)

Event Time Altitude Azimuth Distance (km) Brightness Sun altitude
Exits shadow 16:06:34 64° 359° (N) 542 3.6 -21.4°
Maximum altitude 16:07:04 82° 287° (WNW) 495 3.5 -21.4°
Drops below altitude 10° 16:10:38 10° 198° (SSW) 1,662 6.6 -22.0°
Sets 16:12:41 0° 198° (SSW) 2,538 7.5 -22.4°
